This is the latest recevied weather packets stored in our database for station/object KC3QJO. If no packets are shown the sender has not sent any weather packets the latest 10 day(s).
| Time | Temp. | Humidity | Pressure | Rain* | Wind** | Luminosity | Snow |
|---|---|---|---|---|---|---|---|
| 1778066155 | 17.78° C | 74% | 1007.8 hPa | 0 mm | - | 40 W/m² | - |
| 1778064656 | 17.78° C | 74% | 1007.4 hPa | 0 mm | - | 58 W/m² | - |
| 1778063457 | 17.22° C | 74% | 1007.3 hPa | 0 mm | - | 26 W/m² | - |
| 1778062555 | 17.78° C | 74% | 1007.3 hPa | 0 mm | - | 18 W/m² | - |
| 1778061052 | 17.78° C | 73% | 1007.5 hPa | 0 mm | - | 0 W/m² | - |
| 1778060452 | 17.78° C | 72% | 1007.3 hPa | 0 mm | - | 0 W/m² | - |
| 1778060151 | 17.78° C | 72% | 1007.4 hPa | 0 mm | - | 0 W/m² | - |
| 1778059251 | 17.78° C | 71% | 1007.4 hPa | 0 mm | - | 0 W/m² | - |
| 1778058654 | 17.78° C | 70% | 1007.2 hPa | 0 mm | - | 0 W/m² | - |
| 1778058356 | 17.78° C | 70% | 1007.3 hPa | 0 mm | - | 0 W/m² | - |
| 1778056551 | 17.78° C | 68% | 1007.6 hPa | 0 mm | - | 0 W/m² | - |
| 1778055654 | 17.78° C | 67% | 1007.5 hPa | 0 mm | - | 0 W/m² | - |
| 1778054752 | 18.33° C | 66% | 1007.5 hPa | 0 mm | - | 0 W/m² | - |
| 1778053851 | 18.33° C | 65% | 1007.7 hPa | 0 mm | - | 0 W/m² | - |
| 1778049352 | 18.89° C | 62% | 1008 hPa | 0 mm | - | 0 W/m² | - |
| 1778047851 | 18.89° C | 60% | 1008.2 hPa | 0 mm | - | 0 W/m² | - |
| 1778043664 | 18.89° C | 59% | 1008.6 hPa | 0 mm | - | 0 W/m² | - |
| 1778042755 | 18.89° C | 58% | 1008.7 hPa | 0 mm | - | 0 W/m² | - |
| 1778041854 | 19.44° C | 57% | 1008.7 hPa | 0 mm | - | 0 W/m² | - |
| 1778040651 | 20° C | 55% | 1008.7 hPa | 0 mm | - | 0 W/m² | - |
| 1778038854 | 20° C | 53% | 1008.8 hPa | 0 mm | - | 0 W/m² | - |
| 1778036153 | 20.56° C | 50% | 1008.6 hPa | 0 mm | - | 0 W/m² | - |
| 1778033759 | 21.67° C | 47% | 1008.8 hPa | 0 mm | - | 0 W/m² | - |
| 1778033457 | 21.67° C | 47% | 1008.7 hPa | 0 mm | - | 0 W/m² | - |
| 1778031959 | 22.22° C | 45% | 1008.5 hPa | 0 mm | - | 0 W/m² | - |
* Rain latest hour (hover to see other rain measurements)
** Current wind speed in m/s (hover to see current wind gust speed)